"Pseudo-MPEC" for ZTF01Z7

Created 2018 Oct 14 2:18:21 UT using Find_Orb

Click here for an explanation of pseudo-MPECs

 
 Astrometry: 
     ZTF01Z7  C2018 10 06.45177106 47 57.16 +52 30 34.3          19.23RUNEOCPI41
     ZTF01Z7  C2018 10 06.45306106 47 50.65 +52 28 17.7          18.90RUNEOCPI41
     ZTF01Z7  C2018 10 06.49544906 44 17.93 +51 11 53.1          18.78gUNEOCPI41
     ZTF01Z7  C2018 10 06.49579706 44 16.14 +51 11 14.6          18.78gUNEOCPI41
     ZTF01Z7  C2018 10 06.50532506 43 28.73 +50 53 38.6          18.85RUNEOCPI41

Station data:
(I41) Palomar Mountain--ZTF  (N33.357340 W116.859780)  US/California. 1.2-m
   f/2.44 Oschin Schmidt + CCD.

Orbital elements:  ZTF01Z7
   Perihelion 2018 Sep 10.747085 +/- 13.8 TT = 17:55:48 (JD 2458372.247085)
Epoch 2018 Oct  6.0 TT = JDT 2458397.5   Earth MOID: 0.0012   AutoNEOCP
M  22.14126 +/- 12                  (J2000 ecliptic)
n   0.87678052 +/- 0.0272           Peri.  152.63448 +/- 14
a   1.08112386 +/- 0.0224           Node   193.98715 +/- 0.044
e   0.0822498 +/- 0.0179            Incl.   10.76798 +/- 3.9
P   1.12/410.59d           H 27.4   G  0.15   U 10.3  
q 0.99220156 +/- 0.00694    Q 1.17004616 +/- 0.0424
From 5 observations 2018 Oct. 6 (77.1 min); mean residual 0".12
Residuals in arcseconds: 
181006 I41  .04+  .05-    181006 I41  .26+  .05+    181006 I41  .00   .01+    
181006 I41  .05-  .05+    181006 I41  .25-  .06-    

Ephemerides (geocentric):
Date (UTC) HH   RA              Dec         delta   r     elong  mag " sig PA
---- -- -- --  -------------   -----------  ------ ------ -----  --- ---- ---
2018 10 14 02  04 51 58.459   -45 51 01.29  .02441 1.0053 107.7 21.8 240'  30
2018 10 14 03  04 51 50.551   -45 55 02.16  .02455 1.0053 107.7 21.8 240'  30
2018 10 14 04  04 51 42.706   -45 59 00.24  .02469 1.0053 107.7 21.8 240'  30
2018 10 14 05  04 51 34.922   -46 02 55.56  .02483 1.0054 107.7 21.9 240'  30
2018 10 14 06  04 51 27.199   -46 06 48.16  .02496 1.0054 107.7 21.9 240'  30
2018 10 14 07  04 51 19.536   -46 10 38.11  .02510 1.0054 107.7 21.9 240'  30
2018 10 14 08  04 51 11.932   -46 14 25.43  .02524 1.0055 107.7 21.9 239'  30
2018 10 14 09  04 51 04.386   -46 18 10.17  .02538 1.0055 107.7 21.9 239'  30
2018 10 14 10  04 50 56.898   -46 21 52.37  .02552 1.0055 107.7 21.9 239'  30
2018 10 14 11  04 50 49.467   -46 25 32.08  .02566 1.0056 107.7 21.9 239'  30
2018 10 14 12  04 50 42.092   -46 29 09.33  .02579 1.0056 107.7 21.9 239'  30
2018 10 14 13  04 50 34.772   -46 32 44.15  .02593 1.0056 107.7 22.0 239'  30
2018 10 14 14  04 50 27.507   -46 36 16.60  .02607 1.0056 107.7 22.0 238'  30
2018 10 14 15  04 50 20.296   -46 39 46.71  .02621 1.0057 107.7 22.0 238'  30
2018 10 14 16  04 50 13.139   -46 43 14.50  .02635 1.0057 107.6 22.0 238'  30
2018 10 14 17  04 50 06.033   -46 46 40.03  .02649 1.0057 107.6 22.0 238'  30
2018 10 14 18  04 49 58.980   -46 50 03.32  .02663 1.0058 107.6 22.0 238'  30
2018 10 14 19  04 49 51.978   -46 53 24.41  .02676 1.0058 107.6 22.0 238'  30
2018 10 14 20  04 49 45.027   -46 56 43.33  .02690 1.0058 107.6 22.0 237'  30
2018 10 14 21  04 49 38.126   -47 00 00.12  .02704 1.0059 107.6 22.0 237'  30
2018 10 14 22  04 49 31.274   -47 03 14.80  .02718 1.0059 107.6 22.1 237'  30
2018 10 14 23  04 49 24.471   -47 06 27.41  .02732 1.0059 107.6 22.1 237'  30
2018 10 15 00  04 49 17.716   -47 09 37.98  .02746 1.0060 107.6 22.1 237'  30
2018 10 15 01  04 49 11.009   -47 12 46.54  .02760 1.0060 107.6 22.1 237'  30
2018 10 15 02  04 49 04.348   -47 15 53.12  .02773 1.0060 107.6 22.1 236'  30
2018 10 15 03  04 48 57.734   -47 18 57.76  .02787 1.0061 107.6 22.1 236'  30
2018 10 15 04  04 48 51.166   -47 22 00.46  .02801 1.0061 107.6 22.1 236'  30
2018 10 15 05  04 48 44.643   -47 25 01.28  .02815 1.0061 107.6 22.1 236'  30
2018 10 15 06  04 48 38.165   -47 28 00.23  .02829 1.0061 107.6 22.1 236'  30
2018 10 15 07  04 48 31.732   -47 30 57.34  .02843 1.0062 107.6 22.2 236'  30
2018 10 15 08  04 48 25.341   -47 33 52.64  .02857 1.0062 107.6 22.2 236'  30
2018 10 15 09  04 48 18.994   -47 36 46.15  .02870 1.0062 107.6 22.2 235'  30
2018 10 15 10  04 48 12.690   -47 39 37.90  .02884 1.0063 107.6 22.2 235'  30
2018 10 15 11  04 48 06.427   -47 42 27.91  .02898 1.0063 107.6 22.2 235'  30
2018 10 15 12  04 48 00.207   -47 45 16.21  .02912 1.0063 107.5 22.2 235'  30
2018 10 15 13  04 47 54.027   -47 48 02.83  .02926 1.0064 107.5 22.2 235'  30
2018 10 15 14  04 47 47.888   -47 50 47.78  .02940 1.0064 107.5 22.2 235'  30
2018 10 15 15  04 47 41.789   -47 53 31.09  .02954 1.0064 107.5 22.2 235'  31
2018 10 15 16  04 47 35.730   -47 56 12.78  .02968 1.0065 107.5 22.2 234'  31
2018 10 15 17  04 47 29.710   -47 58 52.88  .02981 1.0065 107.5 22.3 234'  31
2018 10 15 18  04 47 23.729   -48 01 31.40  .02995 1.0065 107.5 22.3 234'  31
2018 10 15 19  04 47 17.786   -48 04 08.37  .03009 1.0066 107.5 22.3 234'  31
2018 10 15 20  04 47 11.881   -48 06 43.81  .03023 1.0066 107.5 22.3 234'  31
2018 10 15 21  04 47 06.014   -48 09 17.74  .03037 1.0066 107.5 22.3 234'  31
2018 10 15 22  04 47 00.183   -48 11 50.18  .03051 1.0066 107.5 22.3 234'  31
2018 10 15 23  04 46 54.389   -48 14 21.16  .03065 1.0067 107.5 22.3 234'  31
2018 10 16 00  04 46 48.631   -48 16 50.68  .03079 1.0067 107.5 22.3 233'  31
2018 10 16 01  04 46 42.909   -48 19 18.77  .03093 1.0067 107.5 22.3 233'  31